Theta_e
306 306 306 307 308 308 307 305 303 300 295 292 290 287 287 288 288 289 288 288 288 287 287 286 285 285 283 283 283 283 283 283 283 281 282 283 282 282 282 283 284 283 283
305 305 305 306 305 304 304 302 299 296 292 291 289 288 287 286 286 287 286 286 286 285 285 284 283 282 282 282 282 282 282 282 282 281 282 281 281 283 282 281 281 282 282
304 303 303 303 303 302 302 300 297 293 290 290 288 287 285 284 285 286 285 285 285 285 284 283 281 282 281 281 281 281 281 280 281 280 280 280 280 281 280 281 281 282 283
303 302 301 302 301 301 301 298 294 291 289 287 286 285 284 284 284 284 284 284 284 284 283 283 281 281 281 280 280 281 281 280 280 279 278 279 279 280 280 278 279 281 280
301 300 300 301 301 300 298 296 292 290 288 286 285 284 283 283 283 283 283 283 283 282 282 282 282 282 284 282 281 281 281 280 280 279 278 278 278 279 278 279 278 279 279
300 299 300 298 296 295 293 290 288 287 285 284 283 283 282 282 287 287 284 282 282 281 280 281 281 282 283 284 284 284 282 281 280 280 279 278 279 279 280 279 278 277 275
297 295 293 293 292 292 290 287 286 285 284 283 282 282 282 282 287 287 286 282 281 281 280 280 280 282 281 281 283 284 283 284 284 281 279 279 279 280 280 279 278 277 276
293 292 291 291 290 289 287 286 285 284 283 282 282 282 282 282 287 287 285 282 281 281 281 280 281 281 281 280 280 280 281 281 282 282 281 281 282 281 280 279 277 277 279
291 290 290 290 288 287 285 285 284 284 283 282 283 282 282 281 287 287 283 282 281 281 281 281 283 282 283 283 279 279 279 279 282 284 284 284 284 284 283 281 279 278 276
289 289 289 288 287 286 286 285 285 284 283 282 281 282 282 281 287 286 283 282 280 280 281 280 282 283 285 285 281 279 277 278 279 278 279 280 281 281 282 280 279 276 275
287 287 287 287 286 286 285 285 284 283 281 280 280 281 281 283 285 286 284 282 281 281 280 279 280 284 285 286 285 281 280 281 281 279 278 278 279 278 278 278 278 275 272
285 284 284 284 285 285 284 283 283 281 280 279 278 278 280 282 284 286 285 284 284 282 282 283 282 284 285 287 286 285 285 283 281 280 280 280 277 277 277 276 275 274 274
282 281 283 283 284 284 283 282 281 281 279 278 278 278 278 280 283 286 287 286 286 284 285 285 285 286 286 286 287 286 283 283 281 280 279 277 277 275 274 273 273 272 272
281 281 282 282 282 283 283 283 282 281 280 279 279 279 279 279 280 283 285 286 285 286 285 285 285 284 284 284 281 282 281 280 279 277 276 275 274 272 271 270 268 268 265
281 281 283 282 283 282 282 283 282 283 283 281 281 281 279 278 279 282 284 284 285 286 285 284 283 281 280 279 278 277 277 274 274 274 272 271 271 270 269 268 267 264 262
280 281 281 283 283 282 282 282 285 285 285 286 286 285 284 285 284 284 284 285 286 286 280 279 279 279 278 277 276 274 274 272 272 271 269 269 268 267 266 266 265 262 260
283 282 283 282 282 281 281 281 280 283 286 286 286 286 286 285 286 286 286 286 287 286 279 280 279 278 277 277 275 274 272 270 267 268 267 267 266 264 263 262 263 262 260
283 282 283 282 282 281 282 282 282 280 279 278 281 282 283 282 284 285 285 286 282 283 279 277 276 277 275 273 271 269 268 266 266 266 265 264 263 263 262 261 260 258 257
281 280 281 282 281 281 281 280 281 281 280 277 276 277 279 282 282 283 283 279 278 275 274 274 274 273 271 269 268 267 267 266 265 263 262 262 262 261 258 258 259 258 257
274 275 278 278 278 278 278 278 278 278 277 276 277 276 274 275 275 271 272 273 273 273 270 269 268 267 266 265 265 264 263 261 260 260 261 261 261 260 258 255 256 256 256
273 272 274 275 275 276 276 275 275 275 275 275 273 272 273 276 274 271 268 268 268 267 266 266 263 263 263 263 263 262 262 262 262 261 261 260 259 258 256 258 256 255 254
271 271 271 271 272 271 271 272 273 272 272 271 268 271 272 270 269 267 266 265 263 263 263 263 262 262 261 261 261 261 260 260 261 259 259 258 258 256 254 256 255 255 254
270 269 269 268 268 268 268 269 269 269 269 269 268 267 268 267 266 265 264 262 261 260 259 259 259 257 258 257 258 259 260 260 260 260 259 257 256 255 254 254 254 252 252
267 267 266 265 265 266 266 266 265 262 265 265 266 266 265 264 263 262 261 260 259 258 258 256 256 256 256 255 256 257 258 258 258 257 256 256 255 254 253 252 252 251 251
264 263 263 263 263 264 264 263 263 263 263 263 262 262 261 261 260 260 259 258 256 257 256 255 255 255 255 254 255 255 257 259 257 257 255 254 253 253 251 250 250 250 250
262 262 262 262 262 261 261 261 261 261 260 260 260 260 259 259 259 259 258 256 255 255 255 256 256 255 254 255 254 256 256 259 256 257 255 255 254 254 253 251 249 249 249
Wind_Speed
11 12 12 12 13 12 12 12 11 10 11 12 13 12 12 12 11 10 10 11 12 10 10 10 9 9 6 5 4 4 3 2 3 2 2 3 2 5 4 5 3 4 5
10 11 12 12 12 13 12 12 12 11 10 11 11 12 12 11 12 11 12 11 13 13 12 12 11 7 8 6 4 4 4 3 3 4 3 3 5 3 4 4 4 4 6
10 11 12 13 14 15 14 13 12 11 10 10 11 12 12 12 12 10 13 13 12 13 13 14 13 11 8 6 5 5 4 3 3 2 2 3 2 2 3 4 5 5 6
11 12 13 14 15 14 13 13 12 12 12 12 13 13 13 12 12 10 11 11 11 11 11 13 13 12 11 10 7 6 5 5 3 3 2 3 3 3 2 4 5 3 5
11 12 14 11 13 13 13 12 11 12 12 12 12 12 12 12 11 13 13 12 12 12 10 10 11 10 13 12 7 6 7 5 4 4 4 3 4 3 4 2 5 6 7
12 13 12 11 11 10 9 10 11 10 10 11 12 13 14 10 19 21 16 13 12 13 13 10 9 10 13 14 11 12 10 8 7 5 4 6 6 3 3 4 5 6 6
13 10 9 8 10 9 9 10 11 11 10 11 11 12 13 12 23 23 20 12 13 12 13 12 9 5 8 7 11 13 11 13 10 4 6 6 5 3 4 6 7 7 10
9 8 8 8 9 9 10 11 11 10 12 12 12 12 11 10 23 22 18 11 10 10 12 13 11 9 7 9 7 6 7 8 8 7 8 8 7 3 2 5 8 10 9
7 7 8 9 9 10 11 11 9 9 9 10 10 11 12 10 25 24 19 11 10 10 10 10 10 9 13 15 7 7 7 7 9 16 16 17 17 16 13 7 7 6 8
5 6 6 7 8 9 9 9 7 7 8 6 7 8 8 8 22 24 16 9 9 8 7 7 11 9 14 16 10 8 8 8 7 5 4 7 9 7 11 6 5 7 7
3 4 4 5 6 6 7 6 8 7 7 7 8 7 9 10 16 23 19 10 9 9 8 7 6 17 15 18 18 9 9 5 8 5 4 5 5 3 2 1 2 3 5
4 5 5 5 4 5 8 6 8 8 9 8 9 7 6 8 16 23 23 17 17 11 11 7 7 18 19 19 16 16 17 12 5 6 6 3 2 2 2 2 2 2 3
5 5 6 6 6 6 8 9 8 8 7 7 7 7 7 7 7 20 23 20 19 9 6 8 12 14 18 16 17 16 13 7 5 5 4 2 2 3 2 0 1 1 3
6 6 6 8 7 6 5 6 7 7 7 6 7 6 6 6 6 7 8 11 14 10 8 7 9 11 11 7 5 7 3 3 3 2 1 1 2 2 1 0 0 1 1
6 4 5 6 7 7 4 4 5 5 7 7 5 6 8 8 8 12 11 8 7 7 6 5 6 6 6 5 4 5 4 4 3 3 2 2 1 1 1 1 1 0 2
7 4 3 4 4 4 6 6 7 8 9 10 9 7 5 6 15 18 18 18 17 11 3 5 5 6 6 6 6 5 4 4 3 3 2 2 2 2 1 0 1 1 1
5 7 4 4 4 5 4 5 6 6 8 7 7 8 7 8 13 17 19 18 17 14 4 4 5 5 5 5 5 4 5 3 3 2 2 2 2 2 2 2 1 1 1
4 4 5 4 4 3 4 4 4 5 4 4 6 5 5 5 8 10 12 12 5 8 4 4 3 3 4 4 3 3 3 5 4 4 3 2 2 2 2 2 2 1 1
4 3 3 4 3 3 4 4 2 3 4 5 4 5 2 8 8 9 11 4 4 4 3 3 2 3 3 3 4 3 4 4 4 3 2 3 3 3 2 2 2 3 3
7 8 6 4 3 3 3 5 3 3 5 3 3 5 2 2 3 3 4 4 4 3 3 4 3 3 4 4 4 4 4 3 3 3 3 4 3 3 3 3 2 3 3
5 5 6 4 4 3 4 5 3 3 3 3 4 2 3 2 4 4 3 3 3 3 3 4 4 3 3 4 4 5 5 5 5 5 5 4 3 2 2 2 2 3 3
5 5 6 5 4 5 5 5 4 4 3 4 3 1 7 4 4 3 3 3 2 3 2 2 3 3 4 5 5 5 5 4 4 4 4 3 3 3 2 2 3 3 3
6 7 7 7 5 5 6 6 5 4 4 4 3 2 3 3 3 2 3 3 3 2 2 1 2 2 2 2 3 3 5 5 5 5 6 5 4 3 3 3 4 3 3
7 7 7 7 6 7 6 6 5 5 5 4 3 3 2 3 2 3 3 2 2 2 2 2 1 3 3 3 2 2 2 1 3 4 5 3 4 4 2 3 3 4 3
7 7 7 7 6 6 5 5 5 4 4 4 3 2 2 2 1 0 1 2 2 2 3 3 2 4 6 6 5 6 6 9 6 5 4 5 5 5 3 3 3 3 4
7 7 6 5 6 5 4 4 3 3 2 1 1 1 1 1 1 1 1 2 2 2 3 2 4 7 6 6 8 9 9 10 8 10 7 6 6 6 5 6 6 3 4
Wind_Direction
209 211 217 219 215 211 213 201 197 182 170 177 179 174 174 171 168 162 164 165 158 151 145 143 133 133 127 120 110 107 119 94 111 99 74 137 224 226 215 218 252 276 288
217 217 212 212 212 217 212 202 189 179 171 178 177 178 176 173 171 168 162 168 158 155 151 141 139 133 130 132 130 135 129 108 132 153 149 183 208 232 265 267 257 256 267
219 218 217 209 213 210 208 202 185 168 167 176 178 179 176 176 170 172 167 168 161 158 157 149 148 147 143 143 146 145 138 147 112 143 181 170 231 240 269 269 276 273 266
210 215 221 211 212 207 204 199 182 170 169 177 184 179 177 172 170 166 162 163 157 154 154 148 152 155 151 153 153 155 152 145 144 179 211 238 226 226 239 272 283 265 301
213 221 222 218 215 206 200 195 180 178 177 179 178 179 173 173 172 167 164 164 154 147 146 150 154 150 153 158 153 156 164 164 172 191 221 234 237 236 244 274 289 290 284
216 224 222 213 207 205 191 182 177 176 172 172 180 176 178 181 178 174 164 162 157 153 150 150 147 146 158 157 163 189 178 174 193 191 217 229 240 239 251 265 279 289 302
209 208 201 197 192 189 174 178 184 181 169 180 181 181 185 181 178 177 166 160 157 158 155 153 149 156 147 142 197 210 202 214 217 194 228 234 254 245 276 278 275 278 277
211 204 189 189 186 181 179 185 183 179 178 179 184 186 182 183 179 172 161 152 153 155 157 160 156 154 159 172 178 194 199 216 226 230 230 241 247 263 264 266 270 273 276
217 213 199 193 186 184 187 187 181 174 178 180 178 179 181 176 179 171 159 153 152 155 153 154 151 157 179 180 188 193 200 225 233 243 250 259 266 271 269 274 273 283 284
215 212 192 184 183 189 184 181 173 178 173 162 161 170 167 160 176 170 156 157 151 149 151 157 169 174 180 189 196 201 215 221 208 213 229 259 268 272 280 276 290 283 294
140 132 135 166 173 171 164 159 155 151 140 140 138 143 144 158 166 171 172 157 163 163 171 176 188 206 205 204 206 209 212 204 215 206 217 234 230 210 188 250 275 302 310
104 115 120 125 135 139 141 135 142 138 139 138 133 129 133 153 170 180 185 184 175 172 184 179 189 205 213 218 217 223 226 228 207 217 218 216 144 174 174 91 23 318 295
93 98 114 115 122 137 141 139 136 145 145 148 153 161 172 176 184 188 190 190 188 187 181 169 179 192 211 223 228 227 226 218 216 224 215 165 147 103 87 249 254 312 263
105 116 120 121 121 129 133 141 147 154 153 158 168 169 156 156 172 182 191 193 201 197 172 172 182 199 200 207 207 226 133 146 179 166 151 119 99 136 175 104 243 334 314
98 102 120 123 133 135 130 149 154 148 159 164 171 168 165 179 183 187 185 192 197 188 160 174 194 184 185 179 156 140 140 144 159 172 165 167 173 150 194 133 196 112 250
108 103 113 107 121 128 125 118 108 124 167 175 172 176 176 173 175 187 194 198 200 194 160 188 190 185 182 173 170 166 171 158 156 136 140 166 193 183 187 124 221 216 252
120 125 111 114 136 127 124 116 111 107 114 108 155 172 152 157 179 195 199 205 206 191 194 197 191 180 176 177 167 172 170 147 100 133 167 171 160 178 164 212 229 238 270
104 120 135 140 135 151 133 123 137 144 134 97 66 88 118 151 178 187 198 197 178 197 164 177 201 155 158 149 141 145 128 132 167 173 163 157 149 176 212 204 204 193 252
96 83 90 95 86 92 92 91 81 116 108 106 94 73 42 131 143 163 158 149 151 124 112 126 135 142 125 126 137 134 151 164 163 147 153 161 180 187 193 198 221 224 229
66 51 66 82 95 83 87 96 94 95 112 135 131 113 92 97 101 70 77 92 105 114 146 128 126 124 135 139 147 151 151 139 146 161 187 182 187 184 191 180 196 236 217
87 84 68 66 67 80 89 86 88 96 110 139 83 80 85 155 112 112 109 102 114 120 129 132 143 146 149 154 153 161 174 178 185 184 189 184 182 193 175 226 212 202 199
65 75 71 64 62 57 58 65 65 64 68 87 85 90 82 80 98 106 107 107 91 77 79 128 147 159 166 168 172 173 183 189 179 174 185 177 173 178 196 204 206 217 222
50 60 65 64 56 58 59 51 53 56 58 65 83 76 70 67 66 74 83 81 85 91 87 72 133 138 137 163 163 179 186 194 188 172 183 180 184 188 178 195 199 194 219
44 51 60 64 50 54 49 51 65 50 46 48 44 48 57 67 66 68 70 100 129 159 152 171 200 184 170 178 183 187 203 166 145 168 163 177 191 182 190 190 192 204 203
46 54 53 49 47 48 50 44 45 40 41 34 36 17 38 40 60 210 155 161 185 203 197 193 197 203 213 206 208 197 196 205 186 178 169 180 197 197 181 181 194 198 194
50 53 49 46 48 43 41 38 39 36 30 26 4 11 4 327 298 289 225 198 209 222 233 221 218 223 222 220 220 217 211 211 210 202 187 192 199 203 196 194 200 186 201